CFG7VD GCFV-EDDF

Flight info

Callsign CFG7VD
Flight time N/A
Altitude 34000
Route VASTO DCT BAROK DCT SUNES DCT TAGUX DCT TOFEF DCT BARDI DCT ZMR DCT NUBLO DCT RONSI DCT DELOG DCT DIDIG DCT ARDOD DCT OBATO UM163 TSU UN858 OQQAL DCT RANUX/N0447F350 DCT VALEK DCT LUTAX DCT DIK T856 NIVNU T847 IMCOM IMCOM1A
Aircraft A321/M-SDE3FGHIRWY/LB1

Departure

Time N/A
Airport Fuerteventura Airport (GCFV)

Arrival

Time 2026-05-04 17:36
Airport Frankfurt Main Airport (EDDF)
Time Latitude Longitude Altitude Speed Heading
2026-05-04 17:08 49.79979 6.06732 25047 ft 437 kts 33°
2026-05-04 17:08 49.85094 6.11483 23595 ft 421 kts 25°
2026-05-04 17:08 49.87686 6.13456 23492 ft 422 kts 25°
2026-05-04 17:09 49.90317 6.15487 23391 ft 422 kts 25°
2026-05-04 17:09 49.92943 6.17532 23298 ft 422 kts 25°
2026-05-04 17:09 49.95563 6.19571 23169 ft 421 kts 25°
2026-05-04 17:10 50.00832 6.23529 22967 ft 420 kts 24°
2026-05-04 17:10 50.08733 6.29232 22665 ft 415 kts 24°
2026-05-04 17:11 50.11352 6.31135 22568 ft 414 kts 24°
2026-05-04 17:11 50.13924 6.33019 22473 ft 414 kts 24°
2026-05-04 17:11 50.19121 6.36850 22265 ft 413 kts 24°
2026-05-04 17:12 50.21712 6.38765 22175 ft 412 kts 24°
2026-05-04 17:12 50.26870 6.42600 21967 ft 409 kts 27°
2026-05-04 17:13 50.31914 6.52688 21498 ft 402 kts 80°
2026-05-04 17:14 50.30631 6.65125 21243 ft 391 kts 113°
2026-05-04 17:14 50.29691 6.69113 21159 ft 391 kts 113°
2026-05-04 17:14 50.27813 6.77078 20986 ft 390 kts 113°
2026-05-04 17:15 50.26879 6.81046 20901 ft 389 kts 113°
2026-05-04 17:15 50.25013 6.88971 20741 ft 388 kts 113°
2026-05-04 17:16 50.23144 6.96872 20539 ft 388 kts 113°
2026-05-04 17:16 50.20353 7.08570 19521 ft 381 kts 113°
2026-05-04 17:17 50.19428 7.12438 19183 ft 379 kts 113°
2026-05-04 17:17 50.16671 7.23911 18137 ft 373 kts 113°
2026-05-04 17:18 50.15765 7.27687 17729 ft 371 kts 113°
2026-05-04 17:18 50.13967 7.35162 16923 ft 366 kts 114°
2026-05-04 17:19 50.12179 7.42550 16158 ft 362 kts 114°
2026-05-04 17:19 50.10419 7.49794 15420 ft 358 kts 114°
2026-05-04 17:20 50.08663 7.56991 14675 ft 354 kts 114°
2026-05-04 17:20 50.06924 7.64116 13954 ft 349 kts 114°
2026-05-04 17:20 50.06060 7.67639 13576 ft 347 kts 114°
2026-05-04 17:21 50.04343 7.74616 12775 ft 343 kts 114°
2026-05-04 17:21 50.02657 7.81447 12002 ft 338 kts 114°
2026-05-04 17:22 50.01814 7.84851 11624 ft 336 kts 114°
2026-05-04 17:22 50.00993 7.88240 11241 ft 335 kts 111°
2026-05-04 17:23 50.00557 7.99064 10980 ft 342 kts 82°
2026-05-04 17:23 50.01196 8.02636 10980 ft 345 kts 71°
2026-05-04 17:23 50.02902 8.09600 10975 ft 345 kts 71°
2026-05-04 17:24 50.03753 8.13088 10972 ft 345 kts 71°
2026-05-04 17:24 50.06278 8.23456 10966 ft 326 kts 71°
2026-05-04 17:25 50.07063 8.26673 10960 ft 312 kts 72°
2026-05-04 17:25 50.08580 8.32959 10970 ft 309 kts 72°
2026-05-04 17:26 50.10077 8.39194 10968 ft 309 kts 72°
2026-05-04 17:26 50.12337 8.48611 10974 ft 309 kts 72°
2026-05-04 17:27 50.13840 8.54913 10433 ft 310 kts 72°
2026-05-04 17:27 50.15324 8.61117 9488 ft 302 kts 72°
2026-05-04 17:28 50.16773 8.67213 8489 ft 297 kts 72°
2026-05-04 17:29 50.18883 8.76128 7034 ft 290 kts 72°
2026-05-04 17:29 50.20945 8.84861 5538 ft 279 kts 73°
2026-05-04 17:30 50.19308 8.92423 4141 ft 264 kts 154°
2026-05-04 17:31 50.15828 8.92215 4025 ft 261 kts 209°
2026-05-04 17:31 50.11580 8.87911 4024 ft 231 kts 217°
2026-05-04 17:32 50.09922 8.83733 3728 ft 231 kts 250°
2026-05-04 17:33 50.08290 8.76727 2823 ft 223 kts 251°
2026-05-04 17:33 50.07779 8.74547 2554 ft 205 kts 253°
2026-05-04 17:34 50.06988 8.69156 1902 ft 145 kts 251°
2026-05-04 17:34 50.06655 8.67694 1668 ft 142 kts 254°
2026-05-04 17:35 50.05621 8.63329 1057 ft 143 kts 251°
2026-05-04 17:35 50.04934 8.60473 642 ft 141 kts 253°
2026-05-04 17:35 50.04597 8.59064 464 ft 139 kts 253°
2026-05-04 17:36 50.04269 8.57676 368 ft 128 kts 251°
2026-05-04 17:36 50.04004 8.56566 360 ft 84 kts 249°
2026-05-04 17:36 50.03885 8.55999 351 ft 30 kts 267°
2026-05-04 17:36 50.03897 8.55753 352 ft 18 kts 279°
2026-05-04 17:37 50.03908 8.55660 350 ft 0 kts 279°
2026-05-04 17:38 50.03908 8.55659 350 ft 1 kts 280°
2026-05-04 17:38 50.03938 8.55627 356 ft 10 kts 354°
2026-05-04 17:38 50.03986 8.55691 353 ft 10 kts 68°
2026-05-04 17:39 50.04054 8.55954 356 ft 9 kts 46°
2026-05-04 17:39 50.04106 8.55963 362 ft 7 kts 346°
2026-05-04 17:39 50.04153 8.55938 355 ft 9 kts 340°
2026-05-04 17:40 50.04208 8.55918 353 ft 7 kts
2026-05-04 17:40 50.04244 8.55964 361 ft 8 kts 63°
2026-05-04 17:40 50.04253 8.56053 362 ft 7 kts 125°
2026-05-04 17:40 50.04211 8.56077 361 ft 6 kts 162°
2026-05-04 17:41 50.04182 8.56093 360 ft 3 kts 159°
2026-05-04 17:41 50.04175 8.56098 358 ft 0 kts 159°